Corinth, MS

12:52 PM CST on February 18, 2018 (GMT -0600)
Turner

Weather History for KCRX - April, 2014

Change the Weather History Date:

Saturday, April 26, 2014

  Actual Average Record
Temperature  
Mean Temperature 63 °F -  
Max Temperature 82 °F 76 °F 91 °F (1935)
Min Temperature 44 °F 50 °F 36 °F (1972)
Degree Days  
Heating Degree Days 2    
Growing Degree Days 13 (Base 50)    
Moisture  
Dew Point 50 °F    
Average Humidity 64    
Maximum Humidity 100    
Minimum Humidity 32    
Precipitation  
Precipitation 0.00 in - - ()
Sea Level Pressure  
Sea Level Pressure 29.95 in    
Wind  
Wind Speed 3 mph (SSE)    
Max Wind Speed 14 mph    
Max Gust Speed 16 mph    
Visibility 10 miles    
Events      
Averages and records for this station are not official NWS values.
T = Trace of Precipitation, MM = Missing Value Source: NWS Daily Summary

Daily Weather History Graph

Daily Weather History Graph

Search for Another Location

Airport or City:

Trip Planner

Search our weather history database for the weather conditions in past years. The results will help you decide how hot, cold, wet, or windy it might be!

Date:

Astronomy

Apr. 26, 2014 Rise Set
Actual Time 6:09 AM CDT 7:35 PM CDT
Civil Twilight 5:42 AM CDT 8:02 PM CDT
Nautical Twilight 5:10 AM CDT 8:34 PM CDT
Astronomical Twilight 4:37 AM CDT 9:08 PM CDT
Moon 4:26 AM CDT (4/26) 5:09 PM CDT (4/26)
Length of Visible Light 14h 19m
Length of Day
13h 26m
Waning Crescent, 8% of the Moon is Illuminated
Apr 26
Waning Crescent
Apr 29
New
May 6
First Quarter
May 14
Full
May 21
Last Quarter

Hourly Weather History & Observations

Time (CDT) Temp. Dew Point Humidity Pressure Visibility Wind Dir Wind Speed Gust Speed Precip Events Conditions
12:10 AM 50.0 °F 48.2 °F 94% 29.98 in 10.0 mi Calm Calm - N/A   Clear
12:30 AM 50.0 °F 46.4 °F 87% 29.98 in 10.0 mi Calm Calm - N/A   Clear
12:50 AM 50.0 °F 48.2 °F 94% 29.98 in 10.0 mi Calm Calm - N/A   Clear
1:10 AM 50.0 °F 48.2 °F 94% 29.98 in 10.0 mi Calm Calm - N/A   Clear
1:30 AM 50.0 °F 48.2 °F 94% 29.97 in 10.0 mi Calm Calm - N/A   Clear
1:50 AM 48.2 °F 46.4 °F 93% 29.97 in 10.0 mi West 3.5 mph - N/A   Clear
2:10 AM 48.2 °F 46.4 °F 93% 29.96 in 10.0 mi Calm Calm - N/A   Clear
2:30 AM 48.2 °F 46.4 °F 93% 29.97 in 10.0 mi Calm Calm - N/A   Clear
2:50 AM 48.2 °F 46.4 °F 93% 29.97 in 10.0 mi Calm Calm - N/A   Clear
3:10 AM 48.2 °F 46.4 °F 93% 29.97 in 10.0 mi Calm Calm - N/A   Clear
3:30 AM 48.2 °F 46.4 °F 93% 29.96 in 10.0 mi Calm Calm - N/A   Clear
3:50 AM 46.4 °F 44.6 °F 93% 29.96 in 10.0 mi Calm Calm - N/A   Clear
4:10 AM 48.2 °F 46.4 °F 93% 29.96 in 10.0 mi Calm Calm - N/A   Clear
4:30 AM 46.4 °F 44.6 °F 93% 29.96 in 10.0 mi Calm Calm - N/A   Clear
4:50 AM 46.4 °F 44.6 °F 93% 29.96 in 10.0 mi Calm Calm - N/A   Clear
5:10 AM 46.4 °F 44.6 °F 93% 29.96 in 10.0 mi Calm Calm - N/A   Clear
5:30 AM 44.6 °F 44.6 °F 100% 29.96 in 6.0 mi Calm Calm - N/A   Clear
5:50 AM 46.4 °F 44.6 °F 93% 29.97 in 10.0 mi Calm Calm - N/A   Clear
6:10 AM 46.4 °F 44.6 °F 93% 29.98 in 10.0 mi Calm Calm - N/A   Clear
6:30 AM 46.4 °F 44.6 °F 93% 29.98 in 10.0 mi Calm Calm - N/A   Clear
6:50 AM 46.4 °F 44.6 °F 93% 29.98 in 10.0 mi Calm Calm - N/A   Clear
7:10 AM 48.2 °F 46.4 °F 93% 29.99 in 10.0 mi Calm Calm - N/A   Clear
7:30 AM 50.0 °F 48.2 °F 94% 29.99 in 10.0 mi SE 3.5 mph - N/A   Clear
7:50 AM 53.6 °F 48.2 °F 82% 29.99 in 10.0 mi SSE 3.5 mph - N/A   Clear
8:10 AM 55.4 °F 50.0 °F 82% 30.00 in 10.0 mi SE 3.5 mph - N/A   Clear
8:30 AM 59.0 °F 51.8 °F 77% 30.00 in 10.0 mi SSE 3.5 mph - N/A   Clear
8:50 AM 64.4 °F 53.6 °F 68% 30.00 in 10.0 mi SSE 8.1 mph - N/A   Clear
9:10 AM 66.2 °F 53.6 °F 64% 30.00 in 10.0 mi SSE 9.2 mph - N/A   Clear
9:30 AM 68.0 °F 53.6 °F 60% 30.01 in 10.0 mi SSE 9.2 mph - N/A   Clear
9:50 AM 71.6 °F 53.6 °F 53% 30.01 in 10.0 mi South 8.1 mph - N/A   Clear
10:10 AM 71.6 °F 53.6 °F 53% 30.01 in 10.0 mi SSE 10.4 mph - N/A   Clear
10:30 AM 73.4 °F 51.8 °F 47% 30.00 in 10.0 mi SSE 10.4 mph - N/A   Clear
10:50 AM 75.2 °F 51.8 °F 44% 30.00 in 10.0 mi SSE 12.7 mph 16.1 mph N/A   Clear
11:10 AM 75.2 °F 51.8 °F 44% 30.00 in 10.0 mi SE 13.8 mph - N/A   Clear
11:30 AM 75.2 °F 50.0 °F 41% 29.99 in 10.0 mi SE 12.7 mph - N/A   Clear
11:50 AM 77.0 °F 51.8 °F 41% 29.99 in 10.0 mi SSW 11.5 mph - N/A   Clear
12:10 PM 77.0 °F 51.8 °F 41% 29.98 in 10.0 mi SSE 12.7 mph 16.1 mph N/A   Clear
12:30 PM 77.0 °F 51.8 °F 41% 29.98 in 10.0 mi South 6.9 mph - N/A   Clear
12:50 PM 77.0 °F 51.8 °F 41% 29.98 in 10.0 mi SSE 9.2 mph - N/A   Clear
1:10 PM 78.8 °F 50.0 °F 36% 29.97 in 10.0 mi South 6.9 mph - N/A   Clear
1:30 PM 78.8 °F 50.0 °F 36% 29.97 in 10.0 mi SSW 9.2 mph - N/A   Clear
1:50 PM 80.6 °F 50.0 °F 34% 29.96 in 10.0 mi South 6.9 mph - N/A   Clear
2:10 PM 80.6 °F 50.0 °F 34% 29.95 in 10.0 mi South 8.1 mph - N/A   Clear
2:30 PM 80.6 °F 50.0 °F 34% 29.95 in 10.0 mi SSE 12.7 mph 16.1 mph N/A   Clear
2:50 PM 80.6 °F 50.0 °F 34% 29.94 in 10.0 mi South 4.6 mph - N/A   Clear
3:10 PM 80.6 °F 50.0 °F 34% 29.93 in 10.0 mi SE 6.9 mph - N/A   Clear
3:30 PM 82.4 °F 50.0 °F 32% 29.92 in 10.0 mi South 4.6 mph - N/A   Clear
3:50 PM 80.6 °F 50.0 °F 34% 29.92 in 10.0 mi South 8.1 mph - N/A   Clear
4:10 PM 82.4 °F 50.0 °F 32% 29.91 in 10.0 mi South 6.9 mph - N/A   Clear
4:30 PM 82.4 °F 50.0 °F 32% 29.91 in 10.0 mi SSE 9.2 mph - N/A   Clear
4:50 PM 82.4 °F 50.0 °F 32% 29.91 in 10.0 mi SSE 10.4 mph - N/A   Clear
5:10 PM 82.4 °F 51.8 °F 35% 29.91 in 10.0 mi South 8.1 mph - N/A   Clear
5:30 PM 80.6 °F 50.0 °F 34% 29.90 in 10.0 mi SSW 10.4 mph - N/A   Clear
5:50 PM 80.6 °F 50.0 °F 34% 29.90 in 10.0 mi South 9.2 mph - N/A   Clear
6:10 PM 80.6 °F 48.2 °F 32% 29.89 in 10.0 mi South 6.9 mph - N/A   Clear
6:30 PM 78.8 °F 50.0 °F 36% 29.89 in 10.0 mi South 5.8 mph - N/A   Clear
6:50 PM 77.0 °F 50.0 °F 39% 29.89 in 10.0 mi South 5.8 mph - N/A   Clear
7:10 PM 77.0 °F 50.0 °F 39% 29.89 in 10.0 mi South 4.6 mph - N/A   Clear
7:30 PM 75.2 °F 50.0 °F 41% 29.89 in 10.0 mi South 5.8 mph - N/A   Clear
7:50 PM 73.4 °F 50.0 °F 44% 29.89 in 10.0 mi South 4.6 mph - N/A   Clear
8:10 PM 73.4 °F 51.8 °F 47% 29.89 in 10.0 mi South 5.8 mph - N/A   Clear
8:30 PM 69.8 °F 51.8 °F 53% 29.90 in 10.0 mi South 5.8 mph - N/A   Clear
8:50 PM 68.0 °F 51.8 °F 56% 29.90 in 10.0 mi South 5.8 mph - N/A   Clear
9:10 PM 66.2 °F 53.6 °F 64% 29.90 in 10.0 mi SSE 4.6 mph - N/A   Clear
9:30 PM 66.2 °F 53.6 °F 64% 29.90 in 10.0 mi SSE 3.5 mph - N/A   Clear
9:50 PM 62.6 °F 53.6 °F 72% 29.90 in 10.0 mi SE 3.5 mph - N/A   Clear
10:10 PM 62.6 °F 53.6 °F 72% 29.91 in 10.0 mi Calm Calm - N/A   Clear
10:30 PM 62.6 °F 53.6 °F 72% 29.91 in 10.0 mi Calm Calm - N/A   Clear
10:50 PM 59.0 °F 55.4 °F 88% 29.91 in 10.0 mi Calm Calm - N/A   Clear
11:10 PM 59.0 °F 55.4 °F 88% 29.91 in 10.0 mi Calm Calm - N/A   Clear
11:30 PM 59.0 °F 53.6 °F 82% 29.90 in 10.0 mi SSE 3.5 mph - N/A   Clear
11:50 PM 59.0 °F 53.6 °F 82% 29.90 in 10.0 mi Calm Calm - N/A   Clear